Regional Weather Roundup
Issued by NWS

Home | Current Version | Previous Version | Graphics & Text | Print | Product List | Glossary Off
Versions: 1 2 3 4 5 6 7 8 9 10 11 12 13 14 15 16 17 18 19 20 21 22 23 24 25 26 27 28 29 30 31 32 33 34 35 36 37 38 39 40 41 42 43 44 45 46 47 48 49 50

000
ASUS43 KTOP 272208
RWRKS

WEATHER ROUNDUP FOR KANSAS
NATIONAL WEATHER SERVICE GOODLAND KS
500 PM CDT THU JUL 27 2017

NOTE:  "FAIR" INDICATES FEW OR NO CLOUDS BELOW 12,000 FEET WITH NO
SIGNIFICANT WEATHER AND/OR OBSTRUCTIONS TO VISIBILITY.

KSZ001>006-013>018-027>032-041>047-272300-
NORTHWEST KANSAS

CITY           SKY/WX    TMP DP  RH WIND       PRES   REMARKS
GOODLAND       FAIR      84  65  52 S9        30.10F
HAYS           CLOUDY    85  66  53 NE8       30.03F
HILL CITY      PTSUNNY   87  64  46 E12       30.04F
RUSSELL        PTSUNNY   86  65  49 NE13      30.01S
$$

KSZ061>065-074>080-084>089-272300-
SOUTHWEST KANSAS

CITY           SKY/WX    TMP DP  RH WIND       PRES   REMARKS
DODGE CITY     PTSUNNY   81  70  69 CALM      30.06F
ELKHART          N/A     80  59  48 E9          N/A
GARDEN CITY    FAIR      80  65  59 CALM      30.08F
GREAT BEND     PTSUNNY   87  68  52 NE13      30.01F
LIBERAL        PTSUNNY   82  68  62 E3        30.07F
PRATT          CLOUDY    82  67  61 N9        30.00F
$$

KSZ066>073-081>083-090>101-272300-
SOUTHEAST KANSAS

CITY           SKY/WX    TMP DP  RH WIND       PRES   REMARKS
CHANUTE        PTSUNNY   87  76  69 N10       29.92S HX  97
COFFEYVILLE    PTSUNNY   92  74  55 SE10      29.88F HX 101
HUTCHINSON     PTSUNNY   88  71  57 N12       29.97F
MEDICINE LODGE   N/A     88  70  55 N9        29.96F
NEWTON         CLOUDY    82  73  74 NE8       29.98F
PARSONS        PTSUNNY   92  73  53 CALM      29.90F HX 100
WICHITA INTL   CLOUDY    86  74  67 N16       29.94F
WICHITA JABRA  CLOUDY    83  74  74 NE14      29.95F
WICHITA MCCONL CLOUDY    83  72  70 NE16      29.95F
WINFIELD       PTSUNNY   89  74  60 N15       29.91F HX  98
$$

KSZ007>012-019>026-033>040-048>060-102>105-272300-
NORTHEAST KANSAS

CITY           SKY/WX    TMP DP  RH WIND       PRES   REMARKS
CONCORDIA      FAIR      85  66  53 NE12      30.00F
EMPORIA        LGT RAIN  79  73  82 N7        29.96S
LAWRENCE       FAIR      84  74  71 N6        29.94F
MANHATTAN      PTSUNNY   87  68  52 NE12      29.96F
MARYSVILLE     FAIR      82  68  61 N8        30.00F
OLATHE IND     FAIR      84  74  71 N13       29.95F
OLATHE EXE     PTSUNNY   84  74  71 NE12      29.94F
SALINA         FAIR      88  67  49 NE10      29.98F
TOPEKA BILLARD FAIR      85  74  69 N9        29.95S
TOPEKA FORBES  FAIR      86  73  65 N8        29.96S
$$




USA.gov is the U.S. government's official web portal to all federal, state and local government web resources and services.